Wind_Speed
49 48 48 46 45 44 43 43 44 45 45 45 47 49 50 50 50 50 52 53 53 53 54 54 54 56 58 59 59 59 59 59 57 56 53 52 50 49 49 48 49 49
49 48 48 47 45 44 43 43 45 46 46 47 49 50 50 50 50 50 52 53 53 54 54 54 55 57 58 59 59 59 58 57 55 53 52 50 49 48 48 48 49 49
49 49 48 46 45 44 44 45 46 47 47 48 50 50 51 51 51 51 52 53 54 54 54 55 56 58 59 59 59 57 55 54 53 51 50 49 48 48 48 48 48 48
51 51 49 47 45 45 45 46 46 47 47 48 49 51 52 52 51 51 51 52 53 54 55 57 58 58 59 58 56 54 53 52 51 50 49 48 47 47 48 48 48 47
52 52 50 47 46 45 45 46 47 47 48 49 51 52 52 52 51 51 52 54 55 57 58 59 58 58 57 55 53 52 51 50 50 49 48 47 47 47 48 48 47 47
53 53 50 47 46 46 46 47 48 48 49 50 52 52 52 53 54 55 57 58 59 60 59 58 57 56 54 52 51 50 50 50 49 48 47 47 47 47 47 47 47 46
51 50 48 47 47 49 50 51 52 52 53 53 54 55 55 56 57 58 59 59 59 59 57 56 54 53 51 50 50 50 49 49 48 48 48 47 47 47 47 47 46 46
47 47 46 47 49 51 52 53 54 54 54 55 56 56 56 56 57 57 57 56 56 54 53 52 51 50 49 49 49 49 49 49 49 48 48 48 47 47 47 47 46 46
43 43 44 46 48 49 50 51 52 52 52 53 53 53 53 53 53 52 52 51 50 49 48 48 48 49 49 49 50 50 50 49 49 49 49 48 48 47 47 47 47 46
40 41 42 44 45 46 47 48 49 49 49 49 49 48 49 48 48 47 46 45 45 45 46 47 48 49 49 50 50 50 50 50 50 50 49 49 48 48 47 47 47 47
38 40 41 42 42 43 44 45 46 46 47 46 45 45 44 43 42 41 41 42 43 45 46 47 48 49 49 50 50 50 50 50 50 50 50 49 49 48 48 48 48 48
37 38 39 39 38 39 39 40 42 43 43 42 40 39 39 39 39 40 42 43 44 45 45 46 47 48 49 49 50 50 50 50 51 51 50 50 49 48 48 48 48 49
35 36 36 35 34 34 35 36 38 38 38 37 37 37 38 39 41 42 43 44 44 44 44 45 45 46 47 48 49 49 49 50 50 51 51 51 50 49 49 49 49 50
33 34 34 35 35 35 35 34 35 35 35 36 38 39 38 38 39 41 41 41 41 41 41 42 43 45 47 48 48 48 49 49 50 50 51 51 51 50 50 50 51 51
32 32 32 33 34 35 33 32 34 36 37 37 37 36 35 35 38 38 38 38 38 38 41 43 45 46 47 47 47 48 48 49 50 50 51 51 51 51 52 53 52 50
32 32 31 30 30 31 31 32 35 37 36 34 33 32 33 35 36 36 37 38 40 42 43 44 44 45 46 47 48 48 49 49 50 51 51 52 53 54 54 52 51 51
34 34 31 29 30 32 32 33 34 34 33 31 30 31 34 36 37 38 39 40 41 42 41 42 45 47 47 47 48 48 49 50 51 51 52 52 53 55 55 53 53 54
35 34 31 30 32 33 32 31 32 31 31 30 31 33 36 37 37 37 37 37 38 39 40 45 48 46 45 46 48 49 51 53 53 54 53 52 51 54 57 57 55 55
36 34 31 31 33 33 31 31 31 30 30 30 32 35 37 36 34 34 35 37 39 40 43 47 46 43 45 48 50 53 55 55 55 55 55 53 51 53 56 56 56 56
36 34 32 33 35 34 33 32 31 31 31 32 34 35 35 36 37 36 36 38 41 43 46 46 43 44 49 52 53 56 58 58 57 55 55 55 54 54 56 57 57 58
37 34 33 35 35 34 33 33 32 32 33 34 35 36 37 40 41 39 38 38 41 44 45 44 44 49 53 54 56 58 59 59 59 57 57 58 57 56 58 59 60 59
37 35 34 34 34 33 32 32 32 32 33 33 34 36 39 41 42 42 41 39 41 44 45 46 50 54 55 57 59 58 58 60 61 60 60 59 59 59 60 61 61 61
38 35 34 33 33 33 33 33 34 33 33 34 35 37 40 40 40 39 38 40 44 47 48 51 55 56 57 60 59 57 59 62 63 62 61 61 61 61 60 61 61 60
38 36 34 34 35 37 37 37 36 34 32 33 34 36 37 35 32 34 38 45 50 50 51 54 56 57 61 61 60 60 62 63 63 63 63 62 61 61 60 60 59 59
39 37 36 36 37 39 40 39 36 32 29 30 32 36 34 30 32 39 45 49 50 52 55 57 56 59 64 63 61 62 63 63 63 63 62 61 61 61 61 60 60 60
39 38 38 38 39 40 41 39 37 32 26 27 36 41 39 37 39 43 48 51 52 56 59 59 60 63 65 63 62 63 63 64 63 62 61 62 62 61 60 60 61 62
Wind_Direction
263 264 265 266 266 269 271 273 276 278 279 279 276 275 278 283 287 288 289 290 291 294 296 297 298 299 300 301 302 302 302 302 303 303 303 304 304 304 304 304 304 305
262 263 263 265 266 269 270 272 274 274 275 277 276 277 281 285 288 289 290 291 292 294 296 297 299 300 300 301 302 301 302 302 302 303 303 303 304 304 304 304 305 306
260 262 263 265 267 269 270 271 272 272 273 274 275 278 282 286 288 289 290 291 293 294 295 297 299 300 301 301 301 301 301 301 302 302 302 303 304 304 304 305 305 306
259 261 263 265 267 269 270 270 270 271 272 273 276 279 283 286 287 288 290 292 292 294 296 298 300 300 301 301 300 300 301 301 301 301 302 303 304 304 304 305 306 307
259 261 262 264 266 268 268 269 270 271 273 275 277 280 282 284 286 289 291 291 292 294 297 299 299 300 300 300 300 300 300 300 300 301 302 303 303 304 304 305 306 307
259 260 262 263 264 265 266 267 269 270 273 275 277 279 280 283 286 289 291 292 293 295 296 297 297 298 298 299 300 300 300 300 301 301 302 302 303 303 304 305 306 307
259 260 261 262 262 263 265 267 268 270 272 274 276 278 280 284 287 290 291 292 293 294 294 295 296 297 298 299 299 299 300 300 301 301 302 302 303 304 304 305 306 307
261 262 263 263 264 265 267 269 270 271 272 274 276 279 282 285 288 290 291 292 292 292 293 294 296 297 298 299 299 299 300 300 300 301 301 302 303 304 304 305 306 307
262 264 265 265 266 267 269 270 272 273 275 276 278 280 284 287 289 290 291 291 291 291 293 295 297 298 299 299 299 300 300 300 300 301 301 302 303 303 304 305 306 307
265 266 267 267 268 270 271 272 273 275 277 278 280 283 286 288 289 290 290 289 291 293 296 298 298 299 299 299 299 300 300 300 300 300 301 302 302 303 304 305 305 306
266 267 268 269 271 271 272 273 275 276 277 280 283 285 287 288 288 288 289 290 293 296 298 299 299 300 300 299 300 300 300 300 300 301 301 302 302 303 304 304 305 305
265 266 268 270 272 273 274 274 275 276 278 281 283 285 286 288 288 288 289 292 296 298 299 300 300 300 301 301 301 301 301 301 301 301 302 302 302 303 303 304 304 304
265 266 269 270 272 273 275 275 275 276 279 280 282 285 289 289 289 290 292 295 297 298 300 301 302 303 303 303 304 303 303 303 302 302 302 303 303 303 303 303 302 303
268 269 270 271 271 273 275 276 276 277 279 282 285 289 290 291 292 294 296 297 298 300 301 303 305 306 306 306 306 306 305 305 304 303 303 303 303 303 303 301 301 303
270 273 274 273 272 273 274 276 277 278 281 285 288 290 292 295 298 299 299 300 300 301 303 305 307 308 308 308 307 308 307 306 305 305 305 305 304 303 301 301 302 304
271 274 277 277 275 274 275 277 279 281 283 285 287 291 295 299 300 300 300 300 300 301 305 308 310 310 309 310 310 309 309 308 308 308 307 306 305 302 301 303 305 305
270 273 276 276 275 275 277 280 281 281 282 285 289 293 297 299 302 302 301 301 301 303 306 311 313 312 311 311 311 311 312 311 311 310 309 308 306 303 304 307 307 306
268 271 273 274 274 275 278 279 279 281 284 287 290 293 296 300 304 303 300 300 301 301 304 311 313 311 312 313 313 312 313 313 313 312 311 310 307 304 305 307 306 304
266 269 271 271 273 276 278 278 279 282 285 288 293 297 296 297 298 293 290 294 298 300 305 311 311 310 312 314 314 314 314 314 314 312 311 309 306 302 303 304 303 304
264 266 268 271 275 278 278 277 278 281 284 291 297 299 295 294 294 292 290 293 298 302 306 308 307 309 312 313 314 315 313 313 314 313 310 309 307 304 303 303 303 304
261 263 266 272 277 279 278 277 278 281 287 293 298 300 298 298 298 294 290 293 298 302 304 306 307 309 310 311 313 314 312 312 314 314 311 310 308 306 305 304 304 304
258 261 266 272 277 279 278 277 279 284 289 295 301 304 304 303 299 293 291 294 300 302 302 304 306 307 308 311 313 312 311 312 314 313 312 310 309 307 306 305 305 306
257 260 265 272 277 278 278 279 281 285 292 300 304 304 305 305 299 292 292 295 298 299 299 301 303 304 307 310 311 310 309 310 311 312 311 310 309 307 306 306 306 307
257 260 266 272 276 277 279 280 282 287 299 308 304 299 303 304 292 285 289 292 293 294 298 301 302 303 306 308 308 308 308 308 309 310 310 310 309 309 308 308 307 307
257 262 268 272 275 277 278 280 282 289 305 309 295 285 287 285 276 277 283 286 287 292 297 300 300 301 304 306 306 306 306 307 308 309 309 309 309 309 309 308 307 307
260 265 270 273 273 274 276 279 283 288 293 288 277 271 268 269 273 276 279 282 286 291 295 297 298 299 301 303 303 304 305 306 307 308 308 308 309 310 309 308 307 307
Height
10720 10721 10722 10724 10725 10725 10725 10724 10721 10718 10717 10717 10716 10716 10716 10716 10716 10715 10712 10710 10708 10708 10706 10704 10702 10700 10697 10694 10692 10689 10686 10683 10680 10677 10674 10672 10670 10667 10664 10661 10658 10655
10714 10715 10717 10719 10720 10721 10721 10720 10717 10714 10713 10712 10711 10710 10711 10711 10712 10710 10708 10705 10704 10703 10702 10700 10698 10695 10692 10689 10686 10683 10680 10677 10675 10672 10669 10667 10665 10662 10660 10657 10654 10651
10709 10710 10712 10714 10716 10716 10716 10715 10713 10711 10710 10708 10707 10706 10706 10706 10706 10705 10702 10700 10699 10697 10696 10695 10693 10690 10687 10684 10681 10678 10675 10672 10669 10667 10664 10662 10660 10657 10655 10652 10649 10647
10704 10705 10708 10710 10711 10711 10711 10710 10709 10708 10706 10704 10703 10702 10702 10701 10701 10699 10697 10695 10693 10692 10690 10689 10687 10685 10682 10679 10676 10673 10670 10667 10665 10662 10660 10658 10655 10653 10650 10647 10645 10642
10699 10700 10703 10705 10705 10705 10705 10704 10703 10703 10702 10700 10699 10698 10698 10697 10695 10694 10692 10690 10688 10687 10685 10683 10681 10679 10676 10673 10671 10668 10665 10663 10660 10658 10655 10653 10651 10648 10646 10643 10641 10638
10694 10695 10698 10699 10700 10699 10699 10699 10698 10698 10698 10696 10695 10694 10694 10692 10691 10689 10687 10685 10683 10681 10680 10678 10675 10673 10670 10668 10666 10663 10660 10658 10656 10653 10651 10649 10646 10644 10642 10639 10637 10635
10689 10691 10693 10694 10694 10694 10693 10693 10692 10693 10692 10691 10690 10690 10689 10688 10686 10684 10682 10680 10678 10676 10674 10672 10670 10668 10665 10663 10661 10658 10656 10653 10651 10649 10646 10644 10642 10640 10637 10635 10633 10631
10684 10686 10688 10688 10688 10688 10688 10687 10687 10687 10687 10686 10685 10685 10685 10683 10682 10680 10677 10675 10673 10671 10668 10666 10664 10662 10660 10658 10656 10653 10651 10648 10646 10644 10642 10640 10638 10635 10633 10631 10629 10627
10680 10681 10682 10683 10683 10682 10682 10682 10681 10681 10681 10681 10680 10680 10680 10678 10677 10675 10672 10670 10668 10666 10664 10661 10659 10657 10655 10653 10651 10649 10646 10644 10641 10639 10637 10635 10633 10631 10629 10627 10625 10622
10675 10676 10677 10677 10677 10678 10677 10676 10676 10676 10675 10675 10675 10675 10674 10673 10672 10670 10667 10665 10663 10661 10659 10657 10655 10653 10651 10649 10646 10644 10642 10639 10637 10635 10633 10631 10629 10627 10624 10622 10620 10617
10671 10671 10671 10672 10673 10673 10672 10672 10671 10670 10670 10670 10671 10670 10669 10668 10666 10664 10662 10661 10659 10657 10655 10653 10651 10648 10646 10644 10642 10640 10637 10635 10632 10630 10628 10626 10624 10622 10620 10617 10615 10612
10666 10667 10667 10668 10668 10667 10667 10667 10666 10665 10665 10665 10666 10665 10664 10663 10661 10660 10658 10656 10654 10652 10650 10648 10646 10644 10641 10639 10637 10635 10633 10630 10628 10626 10623 10621 10620 10618 10615 10612 10610 10607
10662 10662 10663 10663 10663 10663 10662 10662 10661 10660 10660 10661 10660 10660 10659 10658 10656 10654 10653 10651 10650 10648 10645 10643 10641 10639 10636 10634 10632 10630 10628 10626 10623 10621 10619 10616 10615 10613 10610 10607 10604 10602
10658 10658 10659 10659 10659 10658 10658 10657 10656 10656 10656 10656 10656 10655 10654 10653 10652 10650 10648 10646 10644 10643 10641 10639 10637 10634 10632 10630 10628 10626 10624 10621 10618 10616 10614 10611 10609 10607 10605 10602 10599 10597
10654 10654 10654 10654 10654 10654 10653 10653 10652 10652 10652 10652 10651 10651 10650 10649 10647 10645 10643 10642 10640 10638 10636 10634 10632 10630 10627 10625 10623 10621 10619 10616 10614 10611 10609 10606 10604 10601 10599 10597 10595 10592
10649 10650 10650 10649 10649 10649 10649 10648 10648 10647 10647 10647 10647 10647 10646 10644 10642 10640 10639 10637 10635 10633 10631 10630 10628 10625 10623 10621 10618 10616 10614 10611 10609 10607 10604 10602 10598 10595 10593 10592 10590 10587
10645 10645 10645 10645 10644 10644 10644 10644 10643 10642 10643 10643 10643 10643 10642 10640 10638 10636 10634 10632 10630 10629 10627 10625 10624 10621 10619 10616 10613 10611 10609 10607 10605 10603 10600 10597 10593 10588 10586 10586 10584 10581
10640 10641 10640 10640 10639 10639 10639 10639 10638 10638 10639 10639 10639 10639 10638 10637 10634 10630 10628 10627 10626 10625 10623 10622 10620 10617 10614 10612 10609 10607 10604 10602 10600 10598 10596 10594 10589 10583 10580 10580 10579 10576
10636 10636 10635 10635 10634 10634 10634 10634 10634 10634 10635 10635 10636 10635 10634 10633 10631 10627 10624 10623 10622 10621 10620 10618 10616 10613 10610 10608 10605 10602 10599 10597 10596 10593 10590 10589 10587 10582 10578 10576 10574 10572
10631 10631 10630 10630 10629 10629 10629 10630 10630 10631 10631 10631 10632 10631 10629 10628 10626 10623 10621 10619 10618 10616 10615 10614 10612 10609 10606 10603 10600 10597 10594 10592 10592 10590 10586 10583 10582 10579 10575 10572 10569 10567
10626 10626 10625 10625 10624 10624 10624 10625 10626 10627 10628 10628 10627 10626 10624 10623 10620 10618 10616 10614 10613 10612 10611 10609 10607 10605 10602 10599 10596 10592 10588 10586 10585 10584 10581 10578 10575 10572 10569 10565 10563 10561
10621 10621 10621 10620 10619 10619 10619 10621 10622 10623 10624 10624 10623 10621 10620 10617 10615 10612 10611 10609 10608 10607 10605 10604 10602 10600 10597 10594 10591 10587 10583 10580 10579 10577 10574 10572 10569 10566 10563 10559 10556 10555
10616 10616 10616 10616 10615 10614 10615 10617 10618 10620 10620 10620 10618 10617 10616 10613 10609 10605 10605 10604 10603 10602 10601 10599 10597 10595 10593 10590 10587 10583 10580 10576 10574 10572 10569 10566 10564 10561 10557 10553 10550 10548
10611 10612 10612 10612 10610 10609 10609 10612 10614 10615 10616 10616 10614 10613 10612 10610 10605 10600 10599 10598 10598 10597 10596 10594 10592 10589 10588 10587 10584 10580 10576 10572 10570 10567 10564 10561 10558 10555 10552 10548 10545 10542
10606 10607 10607 10607 10605 10603 10603 10606 10609 10612 10614 10615 10613 10611 10610 10609 10605 10599 10596 10595 10594 10592 10591 10590 10588 10584 10582 10581 10579 10576 10572 10568 10565 10562 10559 10556 10553 10550 10547 10543 10540 10537
10601 10602 10603 10602 10600 10598 10598 10600 10603 10608 10613 10612 10608 10605 10605 10605 10603 10598 10593 10591 10590 10588 10586 10585 10584 10581 10578 10576 10574 10571 10567 10564 10561 10558 10554 10551 10548 10545 10542 10539 10535 10532